Theta_e
279 279 279 279 278 278 278 278 278 278 278 278 278 278 278 277 277 277 277 277 276 276 276 276 275 275 275 275 274 274 274 273 273 273 273 272 272 272 271 271 270 269 270 268 268 269 269 270 270 269 269 269 269 268 270 274 270 271 272 269 268 270 277
279 279 279 278 278 278 278 278 278 278 278 277 277 277 278 277 277 276 276 276 276 275 275 275 275 275 275 275 274 274 273 273 272 272 272 272 272 272 271 272 270 270 270 269 268 268 269 268 269 268 270 269 268 268 268 267 268 267 268 268 268 267 268
279 279 278 278 278 278 278 278 278 278 278 277 277 277 277 277 277 276 275 275 275 275 275 274 274 274 274 274 273 272 272 272 272 272 272 272 272 272 271 271 272 270 268 268 267 268 268 269 269 269 269 268 268 267 267 267 266 266 266 267 267 266 266
278 278 278 278 278 278 278 278 278 278 278 278 277 277 277 277 276 276 276 276 275 275 274 274 273 273 273 273 272 272 271 271 271 271 271 271 270 271 271 271 271 271 270 267 267 266 267 269 269 268 267 268 267 267 267 267 267 267 266 265 265 265 264
276 276 276 277 277 277 277 277 278 278 277 277 277 277 277 277 276 276 276 276 275 275 274 274 273 274 273 272 272 272 270 270 269 270 270 270 270 269 270 269 270 269 268 266 266 265 265 266 266 267 267 268 267 267 267 267 266 266 265 265 264 265 265
275 275 274 275 276 276 276 277 277 277 277 277 277 276 276 276 276 276 275 275 275 275 274 274 274 274 273 272 272 272 271 270 269 270 269 269 269 268 268 268 267 267 266 266 265 265 263 264 266 265 265 267 268 266 267 266 266 266 265 265 265 264 264
274 274 273 273 273 274 275 275 275 276 276 276 276 275 275 275 275 275 275 275 274 274 274 274 274 273 273 272 272 272 272 270 270 270 269 269 269 268 267 267 266 265 265 265 264 261 263 264 262 264 265 266 268 268 267 266 266 266 266 265 265 264 264
272 273 272 273 272 272 272 272 272 273 274 274 274 274 274 274 274 274 274 274 274 274 274 274 273 273 273 272 273 273 273 272 271 271 270 270 269 268 267 267 266 265 265 264 263 263 262 261 263 262 262 263 265 265 265 265 265 264 264 263 262 262 263
271 271 271 271 271 271 271 270 270 270 270 271 271 271 272 273 273 273 273 273 273 273 273 273 273 273 273 273 273 274 274 274 274 272 271 270 270 269 269 268 268 267 266 265 264 263 261 261 261 261 262 263 263 263 264 265 265 263 261 261 261 262 260
270 270 269 270 270 269 269 270 270 273 276 276 272 270 271 272 272 272 273 273 273 273 273 273 273 273 274 274 274 274 275 275 274 274 273 272 270 270 269 269 268 267 266 265 263 263 263 262 261 261 263 263 264 265 265 263 263 262 262 260 260 259 260
269 268 268 268 267 268 268 268 270 275 278 280 281 275 271 272 272 272 272 273 273 273 273 273 273 273 274 274 274 274 275 274 274 274 274 273 272 272 270 269 268 267 265 264 264 263 262 263 262 262 263 264 265 265 264 264 263 262 260 259 258 259 258
268 267 267 267 266 265 267 267 272 276 277 278 279 279 275 272 272 272 272 273 273 273 273 273 273 273 274 273 274 274 274 274 274 274 274 273 273 272 272 272 270 268 265 265 264 263 263 263 263 263 264 263 264 263 264 263 262 261 260 259 259 259 258
268 268 267 267 266 267 267 266 271 275 277 278 278 279 278 273 273 272 273 273 273 274 274 274 274 273 273 273 274 274 274 273 273 274 274 273 273 272 272 273 273 272 269 267 266 265 264 264 264 264 264 264 264 265 262 262 260 260 260 260 260 260 257
268 268 267 267 266 266 266 266 269 274 277 277 278 278 278 271 272 272 273 273 274 275 275 275 274 274 273 272 273 273 273 273 272 272 272 272 271 270 271 271 271 271 270 269 267 266 265 265 265 265 266 265 266 263 262 261 260 261 259 259 260 261 260
266 267 267 267 266 265 266 267 271 275 276 277 277 278 277 271 270 271 271 273 273 274 275 275 275 274 273 273 272 273 273 273 272 272 271 271 270 269 269 269 269 269 268 268 267 266 266 266 266 266 265 264 265 264 264 263 262 261 261 260 257 255 256
267 267 267 267 266 265 266 267 272 275 276 276 276 277 273 269 268 269 269 270 271 272 274 274 274 274 273 273 272 273 274 273 272 271 270 270 269 269 268 268 270 272 271 269 268 267 267 266 266 268 265 265 264 264 263 263 261 258 256 256 256 258 256
268 267 267 267 267 265 266 266 268 273 274 275 276 275 270 268 268 268 268 269 269 270 271 272 273 273 273 273 272 273 274 275 272 271 270 269 268 268 267 267 268 273 274 273 273 272 272 272 272 272 273 272 272 267 265 263 260 259 258 257 257 258 257
268 268 268 268 268 267 266 266 267 270 273 275 276 274 271 269 268 267 268 268 268 268 269 269 273 273 272 272 272 273 274 276 272 270 270 269 268 267 266 266 267 268 271 274 274 273 273 273 273 273 272 273 273 273 270 263 261 262 261 259 260 258 259
268 269 269 269 268 268 268 267 267 270 273 274 275 273 271 271 269 268 268 268 268 268 267 267 271 273 273 272 272 273 275 276 272 270 269 269 268 266 266 266 266 266 267 268 268 269 269 269 270 270 268 267 268 268 268 267 265 265 263 261 261 260 258
268 267 268 269 268 267 267 267 266 267 272 273 274 274 272 271 270 269 270 270 270 269 267 268 269 271 273 273 273 274 276 276 275 270 270 269 268 267 266 267 265 266 266 266 266 266 266 264 264 262 262 260 262 264 265 265 265 265 265 263 262 261 260
265 266 266 267 267 267 267 266 265 266 270 272 273 273 272 270 270 270 271 271 271 271 270 269 269 269 272 273 273 273 275 277 277 273 270 269 268 268 268 268 264 266 267 265 264 264 263 262 261 261 261 262 261 259 260 261 262 263 264 263 262 262 261
265 266 266 267 268 268 267 267 267 264 267 269 272 273 272 270 269 270 270 269 270 271 270 270 269 269 271 272 272 272 275 276 276 274 270 269 271 271 271 267 266 265 265 264 263 261 261 261 261 261 261 261 261 261 260 259 259 259 260 262 263 262 261
265 266 266 266 267 267 266 266 265 266 265 267 270 272 272 271 270 271 270 269 268 269 270 270 269 269 271 272 273 274 275 276 275 274 271 272 273 271 270 268 266 264 264 263 262 261 260 261 261 261 261 261 261 261 261 259 259 257 256 255 254 255 258
264 264 263 263 264 264 265 265 265 265 266 266 268 270 271 271 270 270 269 269 269 270 270 270 269 269 271 272 273 274 274 274 274 273 273 272 272 271 270 268 266 265 264 264 263 262 261 261 261 260 260 260 261 262 261 259 256 254 252 252 252 253 253
262 261 261 261 261 261 262 263 263 264 265 266 266 268 269 269 269 269 269 268 268 268 269 270 271 271 271 272 272 273 273 273 273 273 272 271 271 271 268 266 265 264 264 263 262 262 261 260 260 261 261 261 261 257 255 254 251 250 248 248 249 249 250
260 260 260 259 260 260 261 261 261 262 262 264 264 264 265 267 267 267 268 268 268 269 270 270 270 270 270 271 271 271 270 268 268 270 270 270 269 266 265 264 264 263 262 261 261 260 260 260 258 257 259 256 255 256 256 255 253 253 251 251 251 251 252
260 260 260 260 261 261 261 260 260 260 259 261 261 261 261 258 260 264 266 263 264 266 266 268 268 268 269 269 269 268 267 267 267 265 264 263 263 263 263 263 263 263 262 261 260 259 259 258 256 254 254 253 255 256 256 256 255 254 254 251 249 251 251
259 259 260 261 262 261 261 261 260 259 259 261 261 260 257 255 257 256 255 257 261 263 264 265 267 267 265 264 263 262 261 261 260 259 259 259 259 259 259 262 264 263 260 260 260 259 257 254 254 255 257 254 254 256 255 254 254 254 252 251 250 248 249
260 260 261 261 260 259 259 260 261 262 265 264 265 264 260 258 258 255 253 260 265 262 262 262 262 261 261 260 259 258 258 258 258 258 257 257 257 256 257 257 258 260 260 259 258 259 257 256 254 254 253 253 253 253 253 251 253 252 253 249 250 253 249
261 261 261 260 259 260 260 260 263 266 266 267 267 267 266 265 264 263 259 262 265 264 260 259 260 259 259 258 258 258 257 258 257 258 258 255 258 256 255 255 255 256 257 255 256 256 255 254 253 252 251 251 253 251 250 251 254 252 252 250 249 249 249
261 261 262 261 260 262 264 264 265 265 266 266 266 266 266 266 266 265 264 264 261 259 260 258 259 258 256 257 257 257 257 257 257 257 256 256 254 253 254 255 254 254 253 253 253 252 253 253 253 253 251 251 252 253 251 251 251 251 250 251 249 248 248
260 261 262 262 262 261 261 263 264 265 265 265 265 265 265 265 265 266 266 264 264 257 257 256 256 255 255 255 255 257 256 256 256 256 256 254 253 253 252 253 254 253 252 252 250 251 251 251 251 252 251 252 252 252 252 251 250 249 250 248 247 248 248
260 261 261 260 261 262 262 262 263 263 264 263 263 263 263 263 264 264 265 265 260 256 255 252 253 254 253 254 255 255 255 255 253 254 254 254 254 253 253 252 254 253 252 251 252 252 251 251 251 251 251 251 252 252 251 251 251 250 249 248 247 247 247
259 259 259 259 260 260 261 261 262 262 262 262 262 262 262 262 261 262 263 263 261 257 255 253 251 252 252 253 253 253 253 253 252 252 252 252 252 253 251 252 250 249 251 250 251 251 250 251 251 251 251 250 251 252 252 251 250 250 248 247 248 249 248
254 256 258 257 258 259 259 260 260 261 261 261 261 261 261 260 256 256 257 259 260 259 258 255 254 253 253 252 252 253 253 253 251 251 251 252 252 251 251 250 249 251 250 251 250 249 249 250 251 251 251 252 251 251 250 251 250 249 249 249 248 248 247
251 251 255 257 257 257 258 258 259 260 260 261 261 260 259 253 251 253 254 255 256 256 258 257 255 254 253 253 253 252 251 252 252 251 252 252 252 251 252 251 250 250 251 250 251 251 251 251 249 251 251 251 252 252 252 252 251 250 250 250 249 248 248
Wind_Speed
9 10 10 10 10 11 10 10 11 10 10 10 10 10 10 10 10 11 10 9 10 8 8 10 11 11 10 7 8 8 8 7 8 7 6 6 6 7 6 8 8 9 9 2 1 2 2 2 3 1 2 3 3 4 3 4 1 1 1 1 2 0 4
9 9 10 10 10 10 11 11 11 10 9 10 11 11 9 10 11 11 11 10 11 10 9 10 11 11 10 9 10 8 8 8 7 7 7 7 8 9 8 7 8 9 8 9 2 2 1 1 1 3 1 5 3 2 4 4 2 2 2 2 2 2 0
8 9 9 9 10 10 10 11 11 10 10 11 11 12 11 11 11 12 12 12 13 12 11 10 10 11 9 6 8 9 8 7 8 7 9 10 8 9 8 8 8 7 9 8 7 4 4 4 2 5 3 3 3 3 3 4 3 3 1 1 2 2 2
5 5 7 8 8 9 10 10 10 10 10 12 12 12 13 12 12 12 12 12 12 11 10 12 11 11 9 9 10 9 8 7 7 8 8 9 8 8 9 8 8 9 8 6 7 5 7 4 6 1 2 3 3 4 3 4 2 2 2 2 1 3 2
3 4 4 7 7 9 9 10 10 11 11 10 10 12 12 12 11 12 12 12 12 12 11 12 12 12 10 10 11 9 8 7 9 9 9 10 8 8 7 6 7 7 5 6 8 5 2 2 1 1 2 4 5 2 2 1 3 3 3 1 2 1 3
5 3 4 4 5 6 6 7 8 9 10 11 10 10 11 10 10 11 11 11 11 11 10 12 12 11 10 11 12 12 10 10 11 9 9 9 8 8 7 8 7 6 6 7 7 7 4 1 5 1 2 2 4 4 4 2 2 2 3 3 3 3 3
6 5 4 4 4 4 5 6 5 6 7 8 8 9 9 10 10 10 10 10 11 10 10 11 11 11 10 12 13 13 12 11 11 10 11 12 11 9 8 8 7 7 7 7 6 4 4 5 2 3 4 0 2 0 3 3 3 6 2 2 4 5 2
7 5 4 4 4 4 3 3 4 5 5 6 6 6 8 8 9 9 9 9 9 9 10 11 11 11 11 13 13 13 13 12 12 10 11 10 8 8 9 9 7 7 8 7 7 7 6 4 5 1 0 1 0 1 3 3 4 8 5 4 3 4 4
6 7 7 6 5 5 5 4 3 3 3 4 5 5 6 7 8 9 9 9 9 9 10 10 10 10 10 12 15 18 17 15 15 12 12 10 10 10 10 9 8 9 8 7 7 6 3 5 4 4 4 4 4 7 8 2 4 5 3 3 4 5 3
7 6 6 7 7 5 5 5 4 6 8 6 5 5 5 6 7 7 8 9 9 9 9 10 9 10 15 17 18 19 20 19 19 19 15 12 12 12 11 11 10 10 9 9 9 9 8 7 8 6 6 6 6 4 3 3 4 6 4 1 4 3 4
6 6 5 5 5 6 5 4 4 9 11 12 11 4 5 6 7 7 8 9 9 10 10 9 10 9 12 15 16 16 19 19 20 20 20 18 18 17 16 13 12 11 10 10 10 7 7 8 7 6 6 7 5 4 7 6 5 5 4 5 5 7 2
6 5 4 4 4 4 5 4 6 11 12 12 12 10 6 5 6 6 7 8 9 9 9 9 9 9 9 10 13 13 14 18 20 21 21 20 19 20 20 20 17 14 10 9 9 8 9 7 8 6 6 6 5 7 5 6 5 6 6 6 6 5 4
8 8 6 5 6 6 5 5 7 12 13 12 12 13 10 5 5 6 7 7 8 9 9 9 9 9 9 9 15 13 12 12 14 17 20 19 19 20 21 13 7 13 16 13 11 10 8 10 8 7 7 7 6 4 6 5 6 6 6 7 7 7 4
9 8 7 7 6 6 6 6 7 12 14 14 14 13 11 5 6 6 6 7 8 8 9 9 9 9 9 8 9 10 12 11 12 11 12 12 12 12 14 15 16 14 11 10 11 10 11 8 8 8 6 7 6 6 7 7 8 6 6 6 9 7 6
8 9 8 8 6 6 7 7 10 13 15 15 15 15 12 5 5 6 6 6 6 8 9 9 10 10 10 9 10 10 12 12 12 12 12 12 12 12 11 11 11 10 10 10 7 8 8 7 8 8 5 5 6 9 8 8 8 9 8 5 1 1 0
6 7 8 8 8 7 8 7 10 14 14 15 16 17 7 5 5 6 6 7 7 7 8 8 9 9 10 10 10 12 17 15 12 12 14 13 12 10 8 9 8 12 11 9 8 8 8 7 8 9 7 7 7 7 6 5 3 0 1 1 4 7 2
6 6 8 10 9 8 8 8 9 12 14 15 18 13 7 6 6 6 7 7 6 7 7 7 7 8 8 9 9 11 14 17 14 12 14 14 13 11 9 9 6 14 17 16 15 14 14 13 14 15 16 17 18 11 8 5 5 7 5 4 7 7 5
10 9 7 8 10 9 9 9 7 9 13 17 19 15 9 7 7 8 8 8 6 6 6 6 10 9 8 8 9 12 17 20 15 14 15 14 14 13 11 9 6 6 9 17 18 17 17 17 16 16 17 18 17 16 14 9 10 9 7 9 8 8 7
8 8 8 7 9 11 11 9 7 9 14 20 19 14 8 7 6 8 8 7 8 6 5 5 5 9 7 8 8 14 18 22 17 14 13 13 13 14 14 11 10 10 9 7 6 6 7 6 8 6 3 2 4 4 3 5 8 6 7 9 8 7 4
7 9 10 9 8 9 9 8 6 6 14 18 18 17 10 7 7 8 9 8 7 7 4 4 5 6 11 11 10 15 20 22 22 15 12 11 11 13 14 8 10 10 9 8 8 7 5 5 4 3 2 2 2 2 4 5 5 5 6 6 6 6 7
10 10 9 8 7 8 7 7 7 7 11 16 17 17 14 6 7 7 8 8 8 7 7 5 6 5 9 13 13 14 19 21 23 19 12 13 12 13 12 9 8 10 11 8 7 6 5 5 4 4 4 5 5 4 4 3 4 5 6 7 7 7 7
10 10 8 6 6 7 8 8 10 7 8 10 15 16 16 8 6 8 8 10 9 8 6 6 6 6 9 13 15 15 19 21 22 23 12 12 15 14 12 10 8 7 7 6 6 5 5 5 5 5 6 6 6 6 5 6 5 5 7 7 8 9 8
10 8 8 8 7 5 6 7 8 9 8 9 12 15 15 15 11 12 8 8 9 9 7 6 6 7 12 14 18 20 23 23 24 19 13 20 22 17 16 11 7 8 7 7 6 6 6 6 6 6 6 6 7 7 6 6 6 6 5 4 1 0 1
7 8 9 9 8 7 6 7 6 8 13 12 14 12 14 13 13 12 7 8 8 9 8 6 5 7 12 15 18 20 20 21 18 10 17 21 21 19 16 8 8 7 7 7 6 6 6 7 6 5 5 6 6 7 6 4 2 3 2 3 3 2 3
8 7 7 7 8 8 7 6 6 7 8 13 15 15 12 11 10 11 12 8 7 7 6 7 11 13 13 14 16 18 17 14 14 14 11 18 17 15 7 7 7 7 6 6 7 7 6 6 7 8 8 6 5 1 3 3 2 2 2 3 4 4 3
7 7 7 7 7 8 8 6 6 7 7 6 9 10 13 11 8 9 11 10 7 11 11 11 10 11 11 11 10 9 5 2 2 8 9 8 8 6 6 6 6 6 7 6 6 6 7 7 5 5 7 4 3 4 5 4 4 4 2 4 4 3 1
7 7 7 8 8 6 6 6 6 6 6 7 7 7 8 6 6 7 6 6 5 6 6 6 5 5 6 3 4 6 7 7 6 6 6 5 4 4 5 5 6 7 7 6 6 5 6 5 3 2 4 3 5 6 5 6 6 6 6 5 4 6 5
6 6 8 8 7 8 9 8 6 6 7 8 7 8 8 5 5 5 4 3 3 4 5 3 1 1 2 5 5 4 5 5 5 5 4 4 4 5 4 4 4 4 3 3 3 3 2 3 3 4 5 3 4 6 6 4 6 6 6 5 6 4 5
9 9 8 7 6 7 8 9 8 7 7 9 11 9 7 7 6 6 4 4 3 1 3 3 3 3 3 3 4 3 3 4 3 3 4 2 3 3 2 1 1 2 4 4 4 5 5 6 5 5 3 5 3 5 5 3 5 3 6 3 4 8 5
10 11 10 9 8 6 8 8 9 16 18 16 16 17 11 9 9 7 5 4 5 1 1 1 1 1 2 2 3 2 1 1 1 0 1 1 1 1 1 2 3 4 4 3 5 5 5 5 5 5 5 5 5 4 3 4 6 6 6 7 7 7 7
18 19 16 11 8 9 15 17 17 17 17 16 13 15 18 16 9 9 7 6 3 1 3 2 3 2 1 1 1 2 2 1 1 2 2 3 1 1 3 3 4 5 3 4 4 4 5 5 6 6 5 6 6 6 5 4 3 4 5 7 7 7 6
17 16 13 15 16 13 9 13 15 15 16 15 14 14 16 16 18 14 8 9 8 4 3 2 3 2 2 1 2 3 2 2 3 4 4 3 2 4 3 4 6 4 5 5 4 4 5 5 6 6 6 5 5 6 5 6 5 6 7 5 4 6 5
14 14 17 18 17 17 15 14 15 17 16 14 14 14 14 15 16 16 17 6 5 5 5 5 5 5 3 4 5 4 4 4 3 4 4 4 5 5 5 5 6 2 4 4 5 5 5 6 5 5 6 5 5 6 6 6 7 5 5 5 5 3 5
11 14 16 15 16 15 16 16 16 15 14 13 12 12 13 13 10 13 13 9 4 5 6 5 6 5 6 5 5 5 5 4 4 5 5 5 5 6 4 5 3 2 5 4 5 5 4 4 5 5 5 5 5 5 6 6 6 6 6 5 6 6 6
7 9 12 13 12 14 17 16 16 14 12 11 10 11 12 10 8 7 8 8 6 3 3 4 6 6 6 5 6 6 6 6 5 6 5 6 6 5 5 4 3 5 4 5 4 4 4 5 5 5 6 6 6 5 6 6 6 6 6 6 6 6 5
6 5 7 15 15 17 15 16 17 14 12 10 11 10 9 5 6 6 5 6 5 4 4 3 4 4 4 5 6 6 6 6 6 6 6 6 6 6 6 5 5 6 5 4 5 6 5 4 4 5 5 5 5 7 8 7 7 7 7 6 6 6 6
Wind_Direction
215 215 215 214 213 214 213 213 215 212 212 213 216 216 217 216 212 218 223 219 222 215 215 219 223 226 222 208 210 214 208 209 204 198 201 192 190 203 195 184 197 217 242 265 168 135 166 165 113 50 112 82 87 60 56 82 81 168 157 121 132 122 246
216 217 217 216 218 217 219 218 217 214 211 215 218 220 216 217 214 218 222 217 224 215 216 217 223 227 222 210 217 214 210 207 200 199 199 201 196 207 201 197 187 221 225 229 153 210 266 161 127 164 152 154 126 102 100 99 94 61 116 130 127 124 280
222 220 217 218 220 220 222 220 219 217 213 217 217 219 218 216 214 216 218 218 221 217 214 218 221 226 217 209 217 218 214 199 204 198 202 207 199 208 202 194 201 194 220 218 221 178 189 184 208 168 186 138 130 149 136 137 152 146 142 154 164 181 225
266 246 228 226 226 224 223 222 221 220 217 218 217 220 221 218 217 218 219 220 222 218 212 216 219 224 211 208 215 219 208 206 200 199 205 208 205 203 201 194 196 205 205 200 205 226 189 203 169 185 122 121 126 142 142 168 178 141 171 194 192 202 212
271 259 262 249 237 229 225 223 221 221 222 221 220 221 223 221 220 220 221 221 221 217 213 216 217 220 207 207 215 219 207 203 202 206 200 208 201 201 199 188 193 199 183 177 200 208 227 178 117 123 141 154 150 157 142 139 166 196 192 216 233 209 223
358 317 273 255 257 258 256 244 231 225 224 223 221 223 224 224 223 224 223 225 223 220 216 217 219 218 205 205 209 217 210 204 208 205 205 208 202 199 189 191 192 181 183 186 199 176 194 203 177 169 176 173 136 166 207 212 206 202 211 206 258 233 226
359 3 349 314 291 271 259 259 254 250 243 236 229 225 225 226 227 227 227 226 225 222 221 221 221 217 208 208 211 214 210 205 208 205 209 207 203 193 184 191 187 176 180 183 174 191 193 179 232 180 215 192 102 151 178 231 281 277 218 198 230 276 272
353 343 9 11 3 340 317 287 274 261 257 252 245 236 232 230 228 231 230 230 227 224 223 223 221 218 212 210 212 211 214 202 208 205 212 209 192 186 186 191 180 177 182 178 183 184 187 191 191 208 102 19 66 268 263 197 211 254 247 241 254 226 232
354 355 357 1 11 1 1 7 337 295 271 265 263 245 247 241 237 235 234 234 232 228 225 226 224 222 217 214 215 214 213 208 204 198 208 204 188 190 191 193 186 188 181 185 178 194 157 172 193 205 166 193 196 219 234 182 191 246 241 218 254 271 225
351 359 357 352 351 356 358 353 346 336 320 281 242 247 243 245 244 241 240 241 241 238 231 227 225 225 221 219 218 218 218 216 212 209 206 196 187 191 191 194 191 192 192 183 190 196 177 191 210 196 198 208 221 208 230 211 221 242 251 188 261 277 255
344 347 346 347 343 342 344 338 332 326 328 325 315 282 239 241 245 239 240 240 239 242 235 232 228 228 227 224 224 224 222 220 217 214 214 207 197 193 188 189 193 198 185 188 200 185 182 205 207 202 190 213 210 200 212 223 206 221 234 230 247 268 312
334 327 333 334 336 333 325 324 316 326 326 321 311 304 284 248 243 246 239 238 238 239 239 235 231 228 225 221 220 219 221 221 218 215 214 210 203 202 202 195 188 186 183 189 188 188 200 186 210 198 183 206 179 215 213 219 209 214 211 227 229 231 211
330 326 327 336 335 329 324 321 310 323 323 320 316 309 302 280 257 249 247 243 241 239 238 235 232 232 226 224 222 220 220 218 220 218 214 212 208 205 203 198 189 188 186 181 186 193 196 196 196 192 209 183 195 177 200 209 209 227 217 221 227 231 220
324 319 319 320 320 315 313 310 305 317 321 325 322 317 310 290 285 275 261 254 245 242 241 236 232 231 228 220 216 216 215 212 212 208 207 205 202 203 204 198 192 189 172 165 182 186 200 200 163 206 192 189 174 173 206 195 220 216 216 222 228 229 215
314 308 306 306 307 310 307 300 302 312 318 322 322 319 318 307 305 291 283 273 259 247 243 237 233 229 227 217 210 211 206 205 202 198 199 199 199 198 198 193 191 184 179 181 178 181 191 183 184 201 190 171 184 195 207 193 206 207 210 219 276 13 252
296 303 308 305 305 307 303 298 300 305 312 317 319 318 318 312 299 293 284 280 272 262 251 244 235 230 227 218 212 211 205 202 197 195 197 198 197 194 195 202 201 186 177 174 171 179 185 179 185 194 190 188 187 203 206 210 214 94 130 205 253 243 221
307 310 311 306 301 298 293 295 294 299 307 314 316 317 309 304 303 291 288 277 274 263 258 250 236 228 226 217 213 207 196 197 188 195 197 196 194 191 190 199 193 196 195 190 192 193 196 200 206 216 218 219 217 207 197 183 192 223 176 196 241 247 220
309 303 295 295 296 289 288 288 286 294 308 311 310 309 306 302 298 292 288 288 277 266 258 254 245 232 223 213 210 198 196 201 182 197 196 194 191 188 194 197 169 184 206 205 205 207 211 216 221 223 228 232 237 235 213 178 211 214 175 216 225 239 230
293 298 297 288 285 286 285 277 276 293 303 302 302 303 297 295 292 293 292 287 284 268 251 255 254 234 218 211 204 197 201 205 192 198 195 193 191 195 201 196 169 182 189 196 196 213 214 227 230 227 197 152 152 136 133 190 219 215 195 219 226 231 240
306 309 303 297 285 280 273 269 272 280 288 297 299 301 303 301 298 291 290 284 275 280 256 241 246 239 227 217 202 205 212 210 197 195 196 190 194 199 207 181 172 192 184 190 193 203 200 214 230 227 222 208 167 175 193 191 176 186 209 228 236 221 212
301 288 283 283 278 274 268 247 262 272 276 285 294 300 301 290 294 296 296 293 282 267 257 236 228 228 227 216 205 204 212 213 205 193 193 193 198 203 200 163 166 190 183 187 193 195 214 218 230 231 236 242 236 212 204 203 194 195 205 216 230 235 225
296 285 277 284 289 275 272 272 266 264 267 271 280 293 300 301 297 299 295 294 288 278 261 238 227 220 221 213 208 202 213 217 219 200 185 199 204 202 183 168 173 166 167 176 182 189 204 211 211 225 228 231 231 228 217 206 213 210 211 217 216 218 226
302 310 323 321 311 318 314 308 304 292 279 270 280 288 293 295 296 302 306 297 292 288 274 244 227 223 228 224 215 213 218 219 222 210 189 198 203 197 188 168 160 163 166 181 186 187 205 208 207 218 227 226 229 229 218 215 216 213 203 212 217 344 257
325 333 328 323 322 320 320 323 316 313 315 306 288 285 287 292 299 302 300 295 286 283 271 252 232 220 227 224 226 226 226 226 225 213 193 201 200 191 183 166 164 168 174 182 185 191 200 210 212 209 229 229 224 229 223 203 178 171 162 161 130 96 75
315 315 311 312 312 308 311 306 317 322 319 322 317 299 284 278 287 298 305 307 299 286 267 249 244 241 237 231 227 226 227 227 223 227 189 191 190 183 162 157 155 163 163 178 196 200 200 202 205 206 216 220 216 182 79 101 57 67 63 77 96 90 88
307 305 301 300 295 298 292 300 309 309 312 318 320 316 305 295 296 299 305 309 303 298 287 273 251 238 232 226 226 225 215 145 96 103 109 119 129 110 131 130 139 146 162 184 191 195 201 205 193 201 208 197 154 148 198 169 168 139 155 143 145 138 222
299 298 301 295 286 285 298 301 300 305 308 307 308 303 300 297 294 295 306 320 312 317 297 260 239 224 220 150 104 94 95 95 94 88 85 83 90 113 121 146 153 170 179 191 188 196 210 189 175 114 100 133 168 204 212 187 178 183 193 156 170 165 215
296 302 304 300 323 329 320 310 299 301 295 298 300 292 290 281 277 280 276 299 316 338 328 347 354 88 56 80 71 65 57 52 59 74 75 84 98 112 124 130 148 131 155 180 174 184 132 101 114 156 191 184 191 214 212 177 177 187 183 165 143 132 217
308 301 295 308 321 316 313 311 303 280 300 303 295 279 272 286 270 264 264 249 266 359 355 17 37 61 62 72 104 82 72 43 44 46 50 49 41 51 59 69 90 181 208 181 153 187 179 187 168 198 186 180 211 228 213 185 187 202 155 169 169 194 186
303 315 319 314 303 293 287 292 305 313 314 311 321 316 290 259 264 249 228 242 242 161 70 7 54 36 114 93 104 114 112 92 78 1 328 351 58 104 135 172 199 207 204 168 189 192 176 183 173 192 177 185 205 226 190 198 187 191 163 162 183 192 214
313 312 306 297 293 293 304 307 312 312 307 311 334 349 347 338 290 242 222 218 177 117 189 211 170 235 100 153 113 150 191 161 187 230 239 253 208 202 200 214 204 218 187 194 195 190 190 179 176 190 185 192 205 200 200 185 185 147 173 179 176 180 207
310 308 311 325 329 325 320 316 310 313 331 339 342 346 343 341 345 333 264 206 188 164 202 177 213 220 220 199 179 226 198 197 208 225 219 231 207 243 218 209 225 211 183 203 189 202 197 194 194 196 194 197 200 190 184 183 178 174 179 179 164 195 198
316 327 332 329 326 323 318 314 314 319 325 332 340 339 340 343 340 337 339 263 174 171 194 188 190 200 209 188 212 221 207 219 204 210 217 208 214 221 225 211 231 198 187 197 205 204 214 204 203 198 193 193 189 180 188 186 191 190 180 163 175 209 215
329 330 326 326 327 327 327 327 325 322 322 329 337 342 345 350 344 338 334 340 229 187 198 191 192 200 198 209 210 213 200 209 210 205 209 214 222 230 217 225 213 175 212 205 212 204 217 200 199 184 178 189 185 197 185 184 192 174 166 177 192 206 218
326 321 327 329 329 330 331 333 331 324 323 330 341 356 356 10 2 356 345 351 354 322 258 201 199 201 210 199 203 209 198 210 212 204 204 211 224 228 226 223 190 203 206 205 202 198 204 199 191 190 187 182 181 179 180 191 185 187 189 190 199 209 226
311 310 315 323 325 322 326 329 331 326 325 330 350 4 25 21 354 353 338 332 321 323 304 288 284 265 240 204 209 201 201 211 207 210 207 211 208 220 218 213 205 209 206 209 194 204 203 187 191 189 188 187 186 189 193 189 190 192 198 202 202 199 208